TimePDT,TemperatureF,Dew PointF,Humidity,Sea Level PressureIn,VisibilityMPH,Wind Direction,Wind SpeedMPH,Gust SpeedMPH,PrecipitationIn,Events,Conditions,WindDirDegrees,DateUTC
12:15 AM,57.2,46.4,67,29.98,10.0,West,8.1,-,N/A,,Clear,270,2013-10-01 07:15:00
12:35 AM,57.2,46.4,67,29.99,10.0,Calm,Calm,-,N/A,,Clear,0,2013-10-01 07:35:00
12:55 AM,55.4,46.4,72,29.98,10.0,SW,3.5,-,N/A,,Clear,230,2013-10-01 07:55:00
1:15 AM,55.4,44.6,67,29.98,10.0,Calm,Calm,-,N/A,,Clear,0,2013-10-01 08:15:00
1:35 AM,53.6,44.6,72,29.99,10.0,NW,3.5,-,N/A,,Clear,310,2013-10-01 08:35:00
1:55 AM,50.0,44.6,82,29.99,10.0,NE,3.5,-,N/A,,Clear,50,2013-10-01 08:55:00
2:15 AM,50.0,44.6,82,29.99,10.0,ESE,3.5,-,N/A,,Clear,110,2013-10-01 09:15:00
2:35 AM,51.8,46.4,82,29.99,10.0,East,4.6,-,N/A,,Clear,90,2013-10-01 09:35:00
2:55 AM,50.0,46.4,87,29.98,10.0,East,4.6,-,N/A,,Clear,100,2013-10-01 09:55:00
3:15 AM,50.0,46.4,87,29.98,10.0,East,3.5,-,N/A,,Clear,100,2013-10-01 10:15:00
3:35 AM,50.0,46.4,87,29.98,10.0,East,3.5,-,N/A,,Clear,90,2013-10-01 10:35:00
3:55 AM,50.0,46.4,87,29.98,10.0,ESE,3.5,-,N/A,,Clear,120,2013-10-01 10:55:00
4:15 AM,46.4,44.6,93,29.98,10.0,Calm,Calm,-,N/A,,Clear,0,2013-10-01 11:15:00
4:35 AM,48.2,46.4,93,29.98,10.0,Calm,Calm,-,N/A,,Clear,0,2013-10-01 11:35:00
4:55 AM,46.4,44.6,93,29.98,10.0,Calm,Calm,-,N/A,,Clear,0,2013-10-01 11:55:00
5:15 AM,46.4,46.4,100,29.98,10.0,Calm,Calm,-,N/A,,Clear,0,2013-10-01 12:15:00
5:35 AM,46.4,46.4,100,29.99,10.0,Calm,Calm,-,N/A,,Clear,0,2013-10-01 12:35:00
5:55 AM,46.4,46.4,100,29.99,9.0,Calm,Calm,-,N/A,,Clear,0,2013-10-01 12:55:00
6:15 AM,46.4,46.4,100,29.99,9.0,Calm,Calm,-,N/A,,Clear,0,2013-10-01 13:15:00
6:35 AM,46.4,46.4,100,29.99,10.0,Calm,Calm,-,N/A,,Clear,0,2013-10-01 13:35:00
6:55 AM,46.4,46.4,100,30.00,10.0,Calm,Calm,-,N/A,,Clear,0,2013-10-01 13:55:00
7:15 AM,46.4,46.4,100,30.00,8.0,Calm,Calm,-,N/A,,Clear,0,2013-10-01 14:15:00
7:35 AM,44.6,44.6,100,30.01,8.0,Calm,Calm,-,N/A,,Clear,0,2013-10-01 14:35:00
7:55 AM,46.4,46.4,100,30.01,6.0,Calm,Calm,-,N/A,,Clear,0,2013-10-01 14:55:00
8:15 AM,48.2,48.2,100,30.01,8.0,Calm,Calm,-,N/A,,Clear,0,2013-10-01 15:15:00
8:35 AM,51.8,50.0,94,30.02,8.0,Calm,Calm,-,N/A,,Clear,0,2013-10-01 15:35:00
8:55 AM,53.6,50.0,88,30.02,9.0,East,3.5,-,N/A,,Clear,90,2013-10-01 15:55:00
9:15 AM,55.4,48.2,77,30.02,10.0,Calm,Calm,-,N/A,,Clear,0,2013-10-01 16:15:00
9:35 AM,59.0,48.2,67,30.02,10.0,East,3.5,-,N/A,,Clear,90,2013-10-01 16:35:00
9:55 AM,62.6,46.4,55,30.02,10.0,NNW,9.2,-,N/A,,Clear,330,2013-10-01 16:55:00
10:15 AM,64.4,46.4,52,30.02,10.0,NNW,8.1,-,N/A,,Clear,340,2013-10-01 17:15:00
10:35 AM,64.4,46.4,52,30.02,10.0,WNW,9.2,-,N/A,,Clear,290,2013-10-01 17:35:00
10:55 AM,64.4,46.4,52,30.02,10.0,NW,8.1,-,N/A,,Clear,310,2013-10-01 17:55:00
11:15 AM,66.2,46.4,49,30.02,10.0,NW,6.9,-,N/A,,Clear,320,2013-10-01 18:15:00
11:35 AM,68.0,46.4,46,30.01,10.0,NNW,10.4,-,N/A,,Clear,330,2013-10-01 18:35:00
11:55 AM,68.0,46.4,46,30.01,10.0,NNW,9.2,-,N/A,,Clear,330,2013-10-01 18:55:00
12:15 PM,69.8,46.4,43,30.00,10.0,NNW,4.6,-,N/A,,Clear,340,2013-10-01 19:15:00
12:35 PM,71.6,46.4,41,30.00,10.0,NNW,9.2,-,N/A,,Clear,340,2013-10-01 19:35:00
12:55 PM,71.6,46.4,41,30.00,10.0,North,8.1,-,N/A,,Clear,350,2013-10-01 19:55:00
1:15 PM,73.4,46.4,38,29.99,10.0,NNW,5.8,-,N/A,,Clear,340,2013-10-01 20:15:00
1:35 PM,73.4,46.4,38,29.98,10.0,Calm,Calm,-,N/A,,Clear,0,2013-10-01 20:35:00
1:55 PM,73.4,46.4,38,29.97,10.0,West,9.2,16.1,N/A,,Clear,260,2013-10-01 20:55:00
2:15 PM,73.4,46.4,38,29.97,10.0,WSW,15.0,18.4,N/A,,Clear,250,2013-10-01 21:15:00
2:35 PM,73.4,46.4,38,29.96,10.0,West,12.7,-,N/A,,Clear,260,2013-10-01 21:35:00
2:55 PM,73.4,46.4,38,29.96,10.0,NW,5.8,-,N/A,,Clear,310,2013-10-01 21:55:00
3:15 PM,75.2,46.4,36,29.95,10.0,North,4.6,-,N/A,,Clear,350,2013-10-01 22:15:00
3:35 PM,75.2,46.4,36,29.95,10.0,SSW,11.5,-,N/A,,Clear,200,2013-10-01 22:35:00
3:55 PM,75.2,46.4,36,29.95,10.0,SW,6.9,-,N/A,,Clear,230,2013-10-01 22:55:00
4:15 PM,75.2,46.4,36,29.94,10.0,NW,6.9,-,N/A,,Clear,320,2013-10-01 23:15:00
4:35 PM,75.2,46.4,36,29.93,10.0,West,4.6,-,N/A,,Clear,280,2013-10-01 23:35:00
4:55 PM,73.4,48.2,41,29.93,10.0,WSW,11.5,17.3,N/A,,Clear,240,2013-10-01 23:55:00
5:15 PM,73.4,48.2,41,29.92,10.0,SW,15.0,20.7,N/A,,Clear,230,2013-10-02 00:15:00
5:35 PM,71.6,48.2,43,29.93,10.0,WSW,13.8,18.4,N/A,,Clear,240,2013-10-02 00:35:00
5:55 PM,71.6,48.2,43,29.93,10.0,WSW,12.7,-,N/A,,Clear,250,2013-10-02 00:55:00
6:15 PM,68.0,48.2,49,29.92,10.0,WSW,8.1,-,N/A,,Clear,250,2013-10-02 01:15:00
6:35 PM,68.0,46.4,46,29.92,10.0,Calm,Calm,-,N/A,,Clear,0,2013-10-02 01:35:00
6:55 PM,66.2,48.2,52,29.92,10.0,SSW,4.6,-,N/A,,Clear,210,2013-10-02 01:55:00
7:15 PM,64.4,48.2,56,29.92,10.0,Calm,Calm,-,N/A,,Clear,0,2013-10-02 02:15:00
7:35 PM,64.4,48.2,56,29.92,10.0,Calm,Calm,-,N/A,,Clear,0,2013-10-02 02:35:00
7:55 PM,62.6,48.2,59,29.93,10.0,SSE,3.5,-,N/A,,Clear,160,2013-10-02 02:55:00
8:15 PM,62.6,48.2,59,29.93,10.0,Calm,Calm,-,N/A,,Clear,0,2013-10-02 03:15:00
8:35 PM,57.2,48.2,72,29.94,10.0,ENE,3.5,-,N/A,,Clear,70,2013-10-02 03:35:00
8:55 PM,57.2,48.2,72,29.94,10.0,Calm,Calm,-,N/A,,Clear,0,2013-10-02 03:55:00
9:15 PM,53.6,46.4,77,29.95,10.0,Calm,Calm,-,N/A,,Clear,0,2013-10-02 04:15:00
9:35 PM,55.4,46.4,72,29.95,10.0,Calm,Calm,-,N/A,,Clear,0,2013-10-02 04:35:00
9:55 PM,59.0,48.2,67,29.95,10.0,Calm,Calm,-,N/A,,Clear,0,2013-10-02 04:55:00
10:15 PM,62.6,48.2,59,29.95,10.0,NW,4.6,-,N/A,,Clear,310,2013-10-02 05:15:00
10:35 PM,62.6,46.4,55,29.95,10.0,NNW,9.2,-,N/A,,Clear,330,2013-10-02 05:35:00
10:55 PM,62.6,46.4,55,29.95,10.0,NW,10.4,-,N/A,,Clear,320,2013-10-02 05:55:00
11:15 PM,62.6,46.4,55,29.95,10.0,NW,8.1,-,N/A,,Clear,310,2013-10-02 06:15:00
11:35 PM,60.8,48.2,63,29.95,10.0,North,3.5,-,N/A,,Clear,360,2013-10-02 06:35:00
11:55 PM,60.8,46.4,59,29.95,10.0,NNW,4.6,-,N/A,,Clear,330,2013-10-02 06:55:00